Location: Guayaquil
(2.1667°S, 79.9000°W)
Time: 08:05:57
(UTC-05:00)

OTV 5 (USA 277) - Visible Passes

Search period start: 19 June 2019 00:00
Search period end: 29 June 2019 00:00
Orbit: 310 x 325 km, 54.5° (Epoch: 08 May)

Date Brightness Start Highest point End Pass type
(mag) Time Alt. Az. Time Alt. Az. Time Alt. Az.
19 Jun ? 19:14:02 10° S 19:15:45 24° SSE 19:15:45 24° SSE visible
20 Jun ? 19:28:28 10° SW 19:31:05 43° WNW 19:33:42 10° NNE visible
23 Jun ? 05:46:20 10° NNE 05:47:33 12° ENE 05:48:47 10° E visible
23 Jun ? 18:38:55 10° WSW 18:40:58 19° WNW 18:43:00 10° N visible
26 Jun ? 04:55:07 10° N 04:57:26 26° ENE 04:59:45 10° ESE visible
27 Jun ? 05:14:10 14° SSE 05:14:10 14° SSE 05:14:41 10° SSE visible
